Location: Celina Division
(33.3022°N, 96.7580°W)
Time: 12:19:02
(UTC+00:00)

METEOR M2 - Visible Passes

Search period start: 28 March 2023 00:00
Search period end: 07 April 2023 00:00
Orbit: 819 x 826 km, 98.4° (Epoch: 26 March)

Date Brightness Start Highest point End Pass type
(mag) Time Alt. Az. Time Alt. Az. Time Alt. Az.
29 Mar ? 01:28:52 10° WSW 01:31:37 14° W 01:34:23 10° WNW visible
30 Mar ? 01:07:19 10° SW 01:11:28 23° W 01:15:39 10° NW visible
30 Mar ? 11:48:49 10° NE 11:52:52 22° E 11:56:53 10° SE visible
31 Mar ? 11:30:12 10° ENE 11:32:43 13° E 11:35:12 10° ESE visible
03 Apr ? 01:29:13 10° WSW 01:31:52 14° W 01:34:32 10° WNW visible
04 Apr ? 01:07:36 10° SW 01:11:43 22° W 01:15:51 10° NW visible
05 Apr ? 11:30:21 10° ENE 11:32:57 14° E 11:35:32 10° ESE visible
